User: anonymous   Login
Location: Caltech
(34.1382°N, 118.1253°W)
Time: 13:04:01
(UTC-08:00)
Language:

Cosmos 1943 Rocket - Orbit

View from above orbital plane
View from above orbital plane
View from above satellite
View from above satellite

Ground track
Ground track

The orbit data is extracted from the following two-line orbital elements,

1 19120U 88039B   17345.14951759  .00000058  00000-0  50493-4 0  9990
2 19120  71.0149 311.0064 0024406 276.2289  83.6055 14.19179119531496
Epoch (UTC): 11 December 2017 03:35:18
Eccentricity: 0.0024406
inclination: 71.0149°
perigee height: 810 km
apogee height: 846 km
right ascension of ascending node: 311.0064°
argument of perigee: 276.2289°
revolutions per day: 14.19179119
mean anomaly at epoch: 83.6055°
orbit number at epoch: 53149

The dashed part of the orbit path shows where the satellite is in the earth's shadow,  

DLR